Flag for Switzerland Weather past 2 weeks in Geneva, Geneva, Switzerland

Now
65 °F

Mild.


Feels Like: 65 °F
Forecast: 48 / 69 °F
Wind: 8 mph from West

Location: Geneve-Cointrin

Current Time: Aug 23, 2014 at 7:37:17 PM

Latest Report: Aug 23, 2014 at 7:00 PM


Visibility: N/A

Pressure: 30.04 "Hg

Humidity: 44%

Dew point: 42 °F

Location of GenevaLocation

Historic Weather in Geneva — Graph

°F

Geneva temperature yesterday

Maximum temperature yesterday: 75 °F (at 4:00 PM)
Minimum temperature yesterday: 52 °F (at 3:00 AM)
Average temperature yesterday: 62 °F

Past Weeks' High & Low Weather Summary

 TemperatureHumidityPressure
High84 °F (Aug 10, 5:00 PM)94% (Aug 16, 3:00 AM)30.21 "Hg (Aug 16, 3:00 AM)
Low47 °F (Aug 17, 6:00 AM)36% (Aug 18, 4:00 PM)29.71 "Hg (Aug 13, 8:00 AM)
Average63 °F70%29.98 "Hg
* Reported Aug 8 6:00 PM — Aug 23 6:00 PM, Geneva, Weather by CustomWeather, © 2014

Note: Actual official high and low records may vary slightly from our data, if they occured in-between our weather recording intervals... More about our weather records

Advertising

Geneva weather history for previous 24 hours

 ConditionsComfort  
Time TempWeatherWind HumidityBarometerVisibility
6:00 PM
Aug 23
66 °FMild.12 mph44%30.03 "HgN/A
5:00 PM69 °FOvercast.12 mph44%30.02 "Hg31 mi
4:00 PM67 °FMild.15 mph43%30.02 "HgN/A
3:00 PM70 °FMild.9 mph44%30.01 "HgN/A
2:00 PM66 °FOvercast.5 mph44%30.03 "Hg28 mi
1:00 PM66 °FMild.5 mph48%30.02 "HgN/A
12:00 PM64 °FMild.3 mph51%30.03 "HgN/A
11:00 AM64 °FPartly sunny.7 mph59%30.03 "Hg31 mi
10:00 AM63 °FMild.5 mph61%30.03 "HgN/A
9:00 AM59 °FCool.1 mph76%30.03 "HgN/A
8:00 AM57 °FPartly sunny.2 mph86%30.03 "Hg25 mi
7:00 AM56 °FCool.2 mph84%30.02 "HgN/A
6:00 AM56 °FCool.1 mph85%30.01 "HgN/A
5:00 AM55 °FOvercast.3 mph87%30.01 "Hg16 mi
4:00 AM56 °FCool.1 mph85%30.01 "HgN/A
3:00 AM56 °FCool.2 mph82%30.01 "HgN/A
2:00 AM56 °FPassing clouds.3 mph79%30.02 "Hg19 mi
1:00 AM57 °FCool.3 mph76%30.02 "HgN/A
12:00 AM58 °FCool.3 mph73%30.01 "HgN/A
11:00 PM
Aug 22
59 °FPassing clouds.2 mph67%30.00 "Hg25 mi
10:00 PM59 °FCool.3 mph67%30.00 "HgN/A
9:00 PM62 °FRefreshingly cool.3 mph58%29.99 "HgN/A
8:00 PM67 °FPassing clouds.7 mph45%29.96 "Hg37 mi
7:00 PM70 °FMild.9 mph42%29.95 "HgN/A
Weather by CustomWeather, © 2014

See weather overviewHow to use our weather pages